#timestamp,LO_Frequency,Hit 
1503720015.6,286046994.6,N
1503720035.4,286046996.3,N
1503720055.3,286046997.5,N
1503720075.1,286047001.8,N
1503720076.0,286047001.8,N
1503720095.8,286047001.2,N
1503720115.7,286046998.0,N
1503720135.5,286046996.4,N
1503720155.3,286046993.6,N
1503720175.1,286046993.4,N
1503720195.9,286046993.3,N
1503720215.7,286046997.3,N
1503720235.5,286046994.2,N
1503720255.4,286046994.9,N
1503720275.2,286046995.6,N
1503720295.0,286046996.0,N
1503720295.9,286046996.0,N
1503720315.8,286046993.6,N
1503720335.6,286046994.1,N
1503720355.4,286046993.7,N
1503720375.3,286046994.7,N
1503720395.1,286046994.0,N
1503720396.0,286046994.0,N
1503720415.8,286046994.2,N
1503720435.7,286046993.5,N
1503720455.5,286046994.0,N
1503720475.3,286046992.2,N
1503720495.2,286046992.1,P
1503720515.9,286046998.8,N
1503720535.7,286047000.5,N
1503720555.5,286047000.1,N
1503720575.4,286047001.6,N
1503720595.2,286047001.4,N
1503720615.0,286047004.1,N
1503720615.9,286047004.1,N
1503720635.8,286047004.8,N
1503720655.6,286047007.6,N
1503720675.4,286047005.4,N
1503720695.3,286047008.7,N
1503720715.1,286047007.8,N
1503720716.0,286047007.8,N
1503720735.8,286047010.4,N
1503720755.7,286047008.3,N
1503720775.5,286047009.1,N
1503720795.3,286047007.0,N
1503720815.2,286047008.3,N
1503720835.9,286047006.1,N
1503720855.7,286047007.1,N
1503720875.6,286047010.7,N
1503720895.4,286047012.2,N
1503720915.2,286047013.8,N
1503720935.0,286047011.4,N
1503720935.9,286047011.4,N
1503720955.8,286047010.0,N
1503720975.6,286047008.1,N
1503720995.4,286047010.8,N
1503721015.3,286047010.8,N
1503721035.1,286047009.5,N
1503721055.8,286047009.6,N
1503721075.7,286047013.9,P
1503721095.5,286047005.9,N
1503721115.3,286047009.1,N
1503721135.2,286047006.8,N
1503721155.0,286047005.0,N
1503721155.9,286047005.0,N
1503721175.7,286047004.7,N
1503721195.6,286047005.5,N
1503721215.4,286047003.2,N
1503721235.2,286047001.9,N
1503721255.1,286047002.3,N
1503721256.0,286047002.3,N
1503721275.8,286047000.1,N
1503721295.6,286047001.9,N
1503721315.5,286047001.6,N
1503721335.3,286047001.5,N
1503721355.1,286047001.5,N
1503721375.9,286046999.9,N
1503721395.7,286047000.6,N
1503721415.5,286047001.4,N
1503721435.3,286047000.5,N
1503721455.2,286047001.0,N
1503721475.9,286047000.6,N
1503721495.7,286046998.9,N
1503721515.6,286046998.3,N
1503721535.4,286047002.2,N
1503721555.2,286047000.6,N
1503721575.1,286047000.3,N
1503721576.0,286047000.3,N
1503721595.8,286047000.6,N
1503721615.6,286047002.7,N
1503721635.5,286046999.8,N
1503721655.3,286046998.6,N
1503721675.1,286046997.7,N
1503721695.8,286047002.3,N
1503721715.7,286047002.1,N
1503721735.5,286047001.6,N
1503721755.3,286047001.6,N
1503721775.2,286047001.8,N
1503721795.9,286047001.5,N
1503721815.7,286046999.8,N
1503721835.6,286046999.7,N
1503721855.4,286047000.2,N
1503721875.2,286046996.5,N
1503721895.1,286046997.8,N
1503721896.0,286046997.8,N
1503721915.8,286046995.0,P
1503721935.6,286046995.7,N
1503721955.5,286046997.9,N
1503721975.3,286046997.7,N
1503721995.1,286046995.3,N
1503722015.9,286046994.1,P
1503722035.7,286046995.2,P
1503722055.5,286046995.0,P
1503722075.4,286046996.0,P
1503722095.2,286047002.0,P
1503722115.0,286047004.2,N
1503722115.9,286047004.2,N
1503722135.8,286047002.0,N
1503722155.6,286047000.3,N
1503722175.4,286046998.9,N
1503722195.3,286046998.9,N
1503722215.1,286046996.7,N
1503722235.8,286046995.4,N
1503722255.7,286046997.5,N
1503722275.5,286046997.4,N
1503722295.3,286046997.2,N
1503722315.2,286046996.1,N
1503722335.9,286046994.3,N
1503722355.7,286046994.6,N
1503722375.6,286046991.8,N
1503722395.4,286046993.9,N
1503722415.2,286046996.1,N
1503722435.1,286046995.4,N
1503722436.0,286046995.4,N
1503722455.8,286046995.0,N
1503722475.6,286046995.2,N
1503722495.4,286046997.2,N
1503722515.5,286046998.5,N
1503722535.3,286047000.3,N
1503722555.2,286047002.1,N
1503722575.1,286047001.0,N
1503722595.8,286047002.5,N
1503722615.7,286047002.1,N
1503722635.5,286047000.3,N
1503722655.3,286047001.1,N
1503722675.2,286047002.3,N
1503722695.9,286047001.0,N
1503722715.7,286046998.3,N
1503722735.6,286047002.7,N
1503722755.4,286047003.2,N
1503722775.2,286047003.0,N
1503722795.1,286047001.7,N
1503722796.0,286047001.7,N
1503722815.8,286047004.2,N
1503722835.6,286047001.3,N
1503722855.5,286047000.7,N
1503722875.3,286046998.2,N
1503722895.1,286047001.5,N
1503722915.8,286047003.8,N
1503722935.7,286047001.5,N
1503722955.5,286047003.1,N
1503722975.3,286047004.3,N
1503722995.2,286047005.5,N
1503723015.9,286047002.9,N
1503723035.7,286047003.2,N
1503723055.6,286047005.4,N
1503723075.4,286047007.6,P
1503723095.2,286047007.0,N
1503723115.1,286047005.7,N
1503723116.0,286047005.7,N
1503723135.8,286047008.8,P
1503723155.6,286047000.7,N
1503723175.5,286047000.1,N
1503723195.3,286046996.8,N
1503723215.1,286046999.9,N
1503723235.9,286047000.2,N
1503723255.7,286046999.0,N
1503723275.5,286047000.8,N
1503723295.4,286046998.4,N
1503723315.2,286046997.2,N
1503723335.0,286046997.1,N
1503723335.9,286046997.1,N
1503723355.8,286046997.1,N
1503723375.6,286046997.6,N
1503723395.4,286046995.1,N
1503723415.3,286046997.3,N
1503723435.1,286046998.9,N
1503723436.0,286046998.9,N
1503723455.8,286047000.6,N
1503723475.7,286047000.2,N
1503723495.5,286047001.9,N
1503723515.3,286047001.2,N
1503723535.1,286047000.0,N
1503723555.9,286047000.2,N
1503723575.7,286046998.9,N
1503723595.5,286046995.6,N
